| time (UTC) | temp F | wind direction | speed MPH | gust MPH | rain 1hr in | rain 24hr in | rain mn in | humidity % | barometer mb |
| 20260906203014 | 69 | 282 | 6.0 | 9.0 | 0.00 | 0.00 | 0.00 | 65 | 1015.9 |
| 20260906201532 | 67 | 306 | 3.0 | 6.0 | 0.00 | 0.00 | 0.00 | 68 | 1016.0 |
| 20260906200006 | 66 | 321 | 2.0 | 6.0 | 0.00 | 0.00 | 0.00 | 71 | 1016.2 |
| 20260906194502 | 64 | 309 | 3.0 | 6.0 | 0.00 | 0.00 | 0.00 | 73 | 1016.2 |
| 20260906193058 | 63 | 350 | 4.0 | 9.0 | 0.00 | 0.00 | 0.00 | 75 | 1016.3 |
| 20260906191606 | 63 | 329 | 2.0 | 6.0 | 0.00 | 0.00 | 0.00 | 76 | 1016.5 |
| 20260906190052 | 62 | 317 | 2.0 | 11.0 | 0.00 | 0.00 | 0.00 | 76 | 1016.7 |
| 20260906184552 | 61 | 344 | 3.0 | 9.0 | 0.00 | 0.00 | 0.00 | 80 | 1016.8 |
| 20260906183051 | 61 | 328 | 4.0 | 10.0 | 0.00 | 0.00 | 0.00 | 79 | 1016.9 |
| 20260906181544 | 60 | 310 | 2.0 | 5.0 | 0.00 | 0.00 | 0.00 | 82 | 1016.8 |
| 20260906180101 | 59 | 308 | 2.0 | 5.0 | 0.00 | 0.00 | 0.00 | 84 | 1016.6 |
| 20260906174551 | 58 | 313 | 3.0 | 5.0 | 0.00 | 0.00 | 0.00 | 86 | 1016.7 |
| 20260906173036 | 58 | 317 | 2.0 | 4.0 | 0.00 | 0.00 | 0.00 | 89 | 1017.0 |
| 20260906171534 | 57 | 317 | 3.0 | 5.0 | 0.00 | 0.00 | 0.00 | 91 | 1017.1 |
| 20260906170030 | 56 | 331 | 2.0 | 4.0 | 0.00 | 0.00 | 0.00 | 93 | 1017.2 |
| 20260906164528 | 55 | 350 | 1.0 | 3.0 | 0.00 | 0.00 | 0.00 | 93 | 1017.1 |
| 20260906163026 | 55 | 355 | 1.0 | 3.0 | 0.00 | 0.00 | 0.00 | 94 | 1017.2 |
| 20260906161527 | 54 | 355 | 1.0 | 3.0 | 0.00 | 0.00 | 0.00 | 94 | 1017.3 |
| 20260906160022 | 54 | 355 | 0.0 | 2.0 | 0.00 | 0.00 | 0.00 | 94 | 1017.0 |
| 20260906154530 | 53 | 355 | 0.0 | 0.0 | 0.00 | 0.00 | 0.00 | 94 | 1016.9 |
| 20260906153033 | 53 | 355 | 0.0 | 0.0 | 0.00 | 0.00 | 0.00 | 94 | 1016.8 |
| 20260906151524 | 53 | 355 | 0.0 | 0.0 | 0.00 | 0.00 | 0.00 | 94 | 1016.7 |
| 20260906150024 | 52 | 355 | 0.0 | 0.0 | 0.00 | 0.00 | 0.00 | 93 | 1016.7 |
| 20260906144521 | 52 | 355 | 0.0 | 0.0 | 0.00 | 0.00 | 0.00 | 93 | 1016.7 |
| 20260906143033 | 52 | 355 | 0.0 | 0.0 | 0.00 | 0.00 | 0.00 | 93 | 1016.7 |
| 20260906141519 | 52 | 355 | 2.0 | 3.0 | 0.00 | 0.00 | 0.00 | 93 | 1016.7 |
| 20260906140024 | 52 | 355 | 1.0 | 4.0 | 0.00 | 0.00 | 0.00 | 93 | 1016.6 |
| 20260906134520 | 52 | 5 | 2.0 | 4.0 | 0.00 | 0.00 | 0.00 | 93 | 1016.5 |
| 20260906133025 | 52 | 9 | 1.0 | 3.0 | 0.00 | 0.00 | 0.00 | 93 | 1016.4 |
| 20260906131520 | 53 | 9 | 0.0 | 3.0 | 0.00 | 0.00 | 0.00 | 93 | 1016.3 |
| 20260906130016 | 53 | 9 | 0.0 | 4.0 | 0.00 | 0.00 | 0.00 | 93 | 1016.5 |
| 20260906124615 | 53 | 9 | 2.0 | 6.0 | 0.00 | 0.00 | 0.00 | 93 | 1016.5 |
| 20260906123029 | 53 | 360 | 3.0 | 5.0 | 0.00 | 0.00 | 0.00 | 93 | 1016.6 |
| 20260906121514 | 53 | 355 | 0.0 | 0.0 | 0.00 | 0.00 | 0.00 | 92 | 1016.5 |
| 20260906120012 | 53 | 355 | 0.0 | 0.0 | 0.00 | 0.00 | 0.00 | 92 | 1016.5 |
| 20260906114512 | 53 | 355 | 0.0 | 0.0 | 0.00 | 0.00 | 0.00 | 92 | 1016.4 |
| 20260906113010 | 53 | 355 | 0.0 | 0.0 | 0.00 | 0.00 | 0.00 | 93 | 1016.6 |
| 20260906111509 | 53 | 355 | 0.0 | 0.0 | 0.00 | 0.00 | 0.00 | 92 | 1016.7 |
| 20260906110007 | 53 | 350 | 0.0 | 0.0 | 0.00 | 0.00 | 0.00 | 92 | 1016.7 |
| 20260906104506 | 53 | 350 | 0.0 | 0.0 | 0.00 | 0.00 | 0.00 | 91 | 1016.6 |
| 20260906103005 | 53 | 350 | 0.0 | 0.0 | 0.00 | 0.00 | 0.00 | 91 | 1016.5 |
| 20260906101507 | 53 | 350 | 0.0 | 0.0 | 0.00 | 0.00 | 0.00 | 91 | 1016.6 |
| 20260906100105 | 53 | 351 | 0.0 | 0.0 | 0.00 | 0.00 | 0.00 | 91 | 1016.6 |
| 20260906094500 | 54 | 351 | 0.0 | 0.0 | 0.00 | 0.00 | 0.00 | 91 | 1016.7 |
| 20260906093102 | 54 | 351 | 0.0 | 0.0 | 0.00 | 0.00 | 0.00 | 91 | 1016.7 |
| 20260906091600 | 54 | 351 | 0.0 | 0.0 | 0.00 | 0.00 | 0.00 | 91 | 1016.6 |
| 20260906090116 | 54 | 355 | 0.0 | 0.0 | 0.00 | 0.00 | 0.00 | 91 | 1016.7 |
| 20260906084600 | 54 | 355 | 1.0 | 4.0 | 0.00 | 0.00 | 0.00 | 91 | 1016.6 |
| 20260906083057 | 54 | 355 | 2.0 | 6.0 | 0.00 | 0.00 | 0.00 | 90 | 1016.6 |
| 20260906081558 | 54 | 340 | 1.0 | 4.0 | 0.00 | 0.00 | 0.00 | 90 | 1016.6 |
| 20260906080126 | 54 | 52 | 0.0 | 5.0 | 0.00 | 0.00 | 0.00 | 88 | 1016.6 |
| 20260906074605 | 54 | 53 | 0.0 | 3.0 | 0.00 | 0.00 | 0.00 | 87 | 1016.6 |
| 20260906073105 | 55 | 53 | 0.0 | 1.0 | 0.00 | 0.00 | 0.00 | 87 | 1016.7 |
| 20260906071548 | 55 | 53 | 0.0 | 2.0 | 0.00 | 0.00 | 0.00 | 88 | 1016.8 |
| 20260906070046 | 55 | 53 | 3.0 | 4.0 | 0.00 | 0.00 | 0.00 | 87 | 1017.0 |
| 20260906064546 | 56 | 53 | 1.0 | 3.0 | 0.00 | 0.00 | 0.00 | 87 | 1016.9 |
| 20260906063049 | 56 | 53 | 1.0 | 3.0 | 0.00 | 0.00 | 0.00 | 86 | 1016.9 |
| 20260906061545 | 56 | 53 | 1.0 | 3.0 | 0.00 | 0.00 | 0.00 | 86 | 1016.9 |
| 20260906060044 | 56 | 53 | 2.0 | 4.0 | 0.00 | 0.00 | 0.00 | 85 | 1017.0 |
| 20260906054545 | 57 | 53 | 1.0 | 4.0 | 0.00 | 0.00 | 0.00 | 85 | 1017.0 |
| 20260906053043 | 57 | 53 | 2.0 | 4.0 | 0.00 | 0.00 | 0.00 | 84 | 1017.1 |
| 20260906051555 | 57 | 52 | 2.0 | 4.0 | 0.00 | 0.00 | 0.00 | 83 | 1017.2 |
| 20260906050049 | 57 | 52 | 1.0 | 4.0 | 0.00 | 0.00 | 0.00 | 80 | 1017.2 |
| 20260906044548 | 58 | 49 | 3.0 | 4.0 | 0.00 | 0.00 | 0.00 | 78 | 1017.2 |
| 20260906043051 | 59 | 45 | 1.0 | 3.0 | 0.00 | 0.00 | 0.00 | 76 | 1017.3 |
| 20260906041540 | 59 | 45 | 1.0 | 4.0 | 0.00 | 0.00 | 0.00 | 75 | 1017.3 |
| 20260906040039 | 60 | 47 | 0.0 | 3.0 | 0.00 | 0.00 | 0.00 | 74 | 1017.3 |
| 20260906034545 | 60 | 47 | 0.0 | 4.0 | 0.00 | 0.00 | 0.00 | 71 | 1017.3 |
| 20260906033039 | 61 | 47 | 1.0 | 3.0 | 0.00 | 0.00 | 0.00 | 70 | 1017.1 |
| 20260906031545 | 62 | 47 | 1.0 | 4.0 | 0.00 | 0.00 | 0.00 | 68 | 1017.0 |
| 20260906030038 | 62 | 38 | 2.0 | 4.0 | 0.00 | 0.00 | 0.00 | 66 | 1017.0 |
| 20260906024639 | 64 | 37 | 3.0 | 4.0 | 0.00 | 0.00 | 0.00 | 64 | 1016.9 |
| 20260906023037 | 65 | 35 | 2.0 | 3.0 | 0.00 | 0.00 | 0.00 | 61 | 1016.9 |
| 20260906021538 | 66 | 34 | 0.0 | 4.0 | 0.00 | 0.00 | 0.00 | 60 | 1016.8 |
| 20260906020035 | 67 | 35 | 2.0 | 4.0 | 0.00 | 0.00 | 0.00 | 59 | 1016.9 |
| 20260906014534 | 69 | 5 | 1.0 | 3.0 | 0.00 | 0.00 | 0.00 | 54 | 1016.9 |
| 20260906013053 | 70 | 5 | 2.0 | 4.0 | 0.00 | 0.00 | 0.00 | 55 | 1016.7 |
| 20260906011534 | 70 | 355 | 3.0 | 5.0 | 0.00 | 0.00 | 0.00 | 52 | 1016.7 |
| 20260906010032 | 71 | 343 | 2.0 | 3.0 | 0.00 | 0.00 | 0.00 | 51 | 1016.7 |
| 20260906004531 | 71 | 342 | 2.0 | 4.0 | 0.00 | 0.00 | 0.00 | 51 | 1016.7 |
| 20260906003030 | 71 | 329 | 1.0 | 4.0 | 0.00 | 0.00 | 0.00 | 52 | 1016.7 |
| 20260906001529 | 72 | 324 | 1.0 | 3.0 | 0.00 | 0.00 | 0.00 | 50 | 1016.6 |
| 20260906000028 | 73 | 324 | 1.0 | 3.0 | 0.00 | 0.00 | 0.00 | 49 | 1016.7 |
| 20260905234627 | 74 | 327 | 1.0 | 4.0 | 0.00 | 0.00 | 0.00 | 51 | 1016.8 |
| 20260905233026 | 74 | 342 | 2.0 | 4.0 | 0.00 | 0.00 | 0.00 | 53 | 1016.8 |
| 20260905231526 | 73 | 342 | 2.0 | 5.0 | 0.00 | 0.00 | 0.00 | 53 | 1016.8 |
| 20260905230022 | 72 | 338 | 2.0 | 4.0 | 0.00 | 0.00 | 0.00 | 54 | 1016.9 |
| 20260905224517 | 71 | 346 | 2.0 | 5.0 | 0.00 | 0.00 | 0.00 | 55 | 1017.0 |
| 20260905223016 | 71 | 349 | 2.0 | 4.0 | 0.00 | 0.00 | 0.00 | 57 | 1017.2 |
| 20260905221514 | 71 | 355 | 2.0 | 5.0 | 0.00 | 0.00 | 0.00 | 60 | 1017.4 |
| 20260905220011 | 71 | 25 | 3.0 | 6.0 | 0.00 | 0.00 | 0.00 | 66 | 1017.6 |
| 20260905214507 | 69 | 13 | 3.0 | 5.0 | 0.00 | 0.00 | 0.00 | 68 | 1017.7 |
| 20260905213003 | 67 | 11 | 4.0 | 6.0 | 0.00 | 0.00 | 0.00 | 71 | 1017.8 |
| 20260905211557 | 64 | 161 | 5.0 | 7.0 | 0.00 | 0.00 | 0.00 | 75 | 1017.9 |
| 20260905210105 | 63 | 161 | 1.0 | 6.0 | 0.00 | 0.00 | 0.00 | 77 | 1018.1 |
| 20260905204556 | 62 | 166 | 4.0 | 5.0 | 0.00 | 0.00 | 0.00 | 80 | 1018.1 |